Regional Weather Roundup
Issued by NWS

Home | Current Version | Previous Version | Graphics & Text | Print | Product List | Glossary On
Versions: 1 2 3 4 5 6 7 8 9 10 11 12 13 14 15 16 17 18 19 20 21 22 23 24 25 26 27 28 29 30 31 32 33 34 35 36 37 38 39 40 41 42 43 44 45 46 47 48 49 50
000
ASUS45 KCYS 301710
RWRWY

WYOMING REGIONAL WEATHER ROUNDUP
NATIONAL WEATHER SERVICE CHEYENNE WY
1100 AM MDT THU MAR 30 2017

NOTE:  "FAIR" INDICATES FEW OR NO CLOUDS BELOW 12,000 FEET
WITH NO SIGNIFICANT WEATHER AND/OR OBSTRUCTIONS TO VISIBILITY.

WYZ001-301800-
YELLOWSTONE NATIONAL PARK

CITY           SKY/WX    TMP DP  RH WIND       PRES   REMARKS
LK YELLOWSTONE   N/A     35  33  92 SW5       29.77F WCI  31
W YELLOWSTONE  NOT AVBL

$$
WYZ002>013-054>058-071-098>099-301800-
NORTHERN WYOMING

CITY           SKY/WX    TMP DP  RH WIND       PRES   REMARKS
JACKSON        PTSUNNY   43  39  87 SW12      29.75F
CODY           CLOUDY    45  38  76 N14       29.72R
GREYBULL       PTSUNNY   55  36  48 NE12      29.67F
WORLAND        CLOUDY    50  42  74 W5        29.66F
SHERIDAN       CLOUDY    47  39  74 S3        29.71R
BUFFALO        CLOUDY    53  30  41 N8        29.72S
GILLETTE       CLOUDY    49  37  63 SE8       29.71S
HULETT         FAIR      54  37  54 CALM      29.73F
NEWCASTLE      FAIR      50  36  57 SE13G18   29.74F

$$
WYZ014>020-022>026-101>103-301800-
CENTRAL WYOMING

CITY           SKY/WX    TMP DP  RH WIND       PRES   REMARKS
BIG PINEY      FAIR      46  32  58 W10       29.77F
PINEDALE       CLOUDY    37  36  93 E6        29.80F WCI  33
DUBOIS         FAIR      46  28  49 W21G32    29.71R
LANDER         FAIR      52  34  50 N6        29.67F
RIVERTON       FAIR      52  36  54 NW6       29.68F
CASPER         CLOUDY    49  36  61 SW18G26   29.73S
DOUGLAS        PTSUNNY   52  35  52 CALM      29.73F

$$
WYZ021-027>030-104>119-301800-
SOUTHERN WYOMING

CITY           SKY/WX    TMP DP  RH WIND       PRES   REMARKS
EVANSTON       LGT RAIN  40  33  76 W16       29.79S WCI  31
KEMMERER         N/A     41  34  75 SW5       29.79S
FORT BRIDGER   PTSUNNY   47  33  59 N5        29.80F
ROCK SPRINGS   CLOUDY    44  36  73 SE5       29.80F
DIXON          DRIZZLE   46  32  60 S14G20    29.87S
RAWLINS        CLOUDY    46  29  51 SW20G26   29.80F
SARATOGA       CLOUDY    46  28  49 SW17      29.82F
LARAMIE        CLOUDY    47  29  49 W12       29.80F
CHEYENNE       PTSUNNY   54  29  38 W9        29.77F
TORRINGTON     FAIR      45  40  82 SE5       29.74F
PINE BLUFFS    FAIR      54  36  50 NW14G21   29.77F

$$



USA.gov is the U.S. government's official web portal to all federal, state and local government web resources and services.